[[{"header":{"parameterUnit":"m.s-1","parameterCategory":1,"la1":30.2991,"la2":30.254,"lo1":-89.0895,"lo2":-89.0444,"dy":0.0017,"dx":0.0017,"nx":28,"ny":28,"refTime":"2024-05-23T21:00:00:Z","depth":0,"parameterNumber":2,"parameterNumberName":"U-component_of_WINDS"},"data":[0,0,0,0,0,0,0,0,0,0,0,0,0,0,0,0,0,0,0,0,0,0,0,0,0,0,0,0,0,0,0,0,0,0,0,0,0,0,0,0,0,0,0,0,0,0,0,0,0,0,0,0,0,0,0,0,0,0,2.6803,2.6803,0,2.686,2.686,2.6861,2.6818,2.6816,2.6814,2.6812,2.687,2.6874,2.6877,0,0,0,0,0,0,0,0,0,0,0,0,0,2.6654,2.6657,2.6803,2.6803,2.6804,2.686,2.6861,2.6861,2.6818,2.6816,2.6813,2.6811,2.6869,2.6873,2.6877,0,0,0,0,0,0,0,0,0,0,0,0,0,2.6716,2.6658,2.6802,2.6789,2.6788,2.686,2.6861,2.6861,2.6818,2.6816,2.6813,2.681,2.6868,2.6873,2.6878,2.6965,0,0,2.6893,2.6895,0,0,0,0,0,0,0,0,2.6712,2.6721,2.679,2.679,2.679,2.6829,2.683,2.6896,2.6819,2.6807,2.6812,2.6809,2.6859,2.6864,2.6881,2.6968,2.697,2.6893,2.6897,2.6899,2.69,0,0,0,0,0,0,0,2.6708,2.6719,2.6825,2.6791,2.6791,2.678,2.6785,2.6842,2.6848,2.6808,2.6805,2.6812,2.6858,2.6877,2.6882,2.6971,2.6893,2.6898,2.6901,2.6903,2.713,2.7133,0,0,0,0,0,0,2.6705,2.6715,2.6823,2.6827,2.6743,2.6785,2.6791,2.6819,2.6847,2.6849,2.6815,2.681,2.687,2.6877,2.6884,2.6986,2.6899,2.6903,2.6906,2.7127,2.713,2.7134,0,0,0,0,0,0,2.6702,2.6715,2.6821,2.677,2.6783,2.679,2.6822,2.6822,2.684,2.6852,2.6853,2.6832,2.6868,2.6877,2.6945,2.6988,2.6906,2.691,2.7123,2.7128,2.7132,2.7193,0,0,0,0,0,0,2.6698,2.6715,2.6748,2.6771,2.6786,2.6881,2.6825,2.6825,2.6849,2.6843,2.6869,2.6871,2.6866,2.6938,2.695,2.6993,2.6914,2.7119,2.7125,2.7131,2.7187,2.7199,2.7209,0,0,0,0,0,2.6693,2.6764,2.675,2.6764,2.6828,2.6884,2.6892,2.6885,2.6853,2.6886,2.6893,2.687,2.6982,2.6945,2.6958,2.7004,2.7117,2.7124,2.713,2.7182,2.7196,2.7209,0,0,0,0,0,0,2.6746,2.6766,2.6752,2.6832,2.6856,2.6876,2.6918,2.6901,2.6935,2.6929,2.6918,2.6925,2.6995,2.7006,2.6965,2.7089,2.7044,2.7054,2.7078,2.7092,2.7103,2.7098,2.6918,0,0,0,0,0,2.6767,2.681,2.6826,2.6895,2.6908,2.6911,2.6935,2.6928,2.6953,2.6963,2.6975,2.7,2.704,2.7067,2.7105,2.7189,2.7193,2.7226,2.7237,2.7246,2.7255,2.7297,2.7312,2.7156,2.7156,2.7156,0,0,2.681,2.6827,2.6855,2.6906,2.6924,2.6969,2.692,2.697,2.7003,2.697,2.7034,2.7044,2.7071,2.7147,2.718,2.7158,2.7299,2.7255,2.7262,2.7266,2.7306,2.7321,2.7334,2.7161,2.716,2.7159,0,0,2.6912,2.693,2.6988,2.7007,2.7035,2.7036,2.705,2.7073,2.7078,2.7142,2.7118,2.7157,2.7227,2.7246,2.7265,2.7373,2.7352,2.7386,2.7443,2.7485,2.7497,2.7508,2.7544,2.7558,2.7394,2.7395,2.7395,0,2.6963,2.7029,2.7021,2.7072,2.7094,2.7066,2.7125,2.7143,2.7182,2.7198,2.7173,2.7259,2.7275,2.7353,2.7379,2.7397,2.7411,2.7382,2.7496,2.7507,2.7517,2.7551,2.7565,2.7398,2.7398,2.7398,2.7397,0,2.7089,2.7136,2.718,2.7217,2.7244,2.7299,2.7298,2.7326,2.7316,2.732,2.7384,2.7403,2.7443,2.7462,2.7453,2.7538,2.7523,2.7498,2.7452,2.7535,2.7568,2.7581,2.7404,2.7402,2.7401,2.74,0,0,2.7225,2.7256,2.7273,2.7288,2.7316,2.7352,2.7405,2.7443,2.7467,2.7495,2.7538,2.7597,2.7573,2.7595,2.7587,2.7624,2.7706,2.7594,2.7594,2.7612,2.7799,2.7816,2.7832,2.7693,2.7695,2.7697,2.7796,0,2.7327,2.7419,2.7412,2.7498,2.754,2.7513,2.7559,2.7581,2.7585,2.7621,2.7626,2.7668,2.7634,2.7646,2.7682,2.7688,2.7743,2.7681,2.7731,2.7733,2.7723,2.7849,2.7869,2.7961,2.7808,2.7811,2.7812,0,2.7458,2.7489,2.7579,2.7599,2.7616,2.7657,2.7691,2.7726,2.775,2.775,2.7774,2.776,2.7812,2.7766,2.7837,2.7795,2.7815,2.7822,2.7825,2.7828,2.7776,2.7854,2.799,2.8003,2.7832,2.7831,2.7829,0,2.7545,2.761,2.7672,2.7686,2.7712,2.7741,2.7753,2.7773,2.7796,2.7826,2.7841,2.7877,2.7896,2.7924,2.792,2.7887,2.7991,2.7945,2.7992,2.7992,2.8013,2.8012,2.8153,2.803,2.8029,2.8029,2.8029,0,2.7658,2.7714,2.7711,2.7749,2.781,2.7801,2.7862,2.787,2.7889,2.7927,2.7907,2.7943,2.7936,2.7972,2.7969,2.8027,2.8036,2.8037,2.8036,2.8038,2.8038,2.805,2.8042,2.8033,2.8032,2.8031,2.8031,0,2.7766,2.7766,2.7831,2.785,2.7856,2.79,2.7915,2.795,2.7953,2.8001,2.8012,2.8017,2.8058,2.8057,2.8104,2.8101,2.8172,2.8164,2.8163,2.8161,2.8207,2.8202,2.8359,2.8378,2.8244,2.8246,2.8247,0,2.7837,2.7879,2.7901,2.7925,2.7939,2.7978,2.8001,2.7994,2.8019,2.8048,2.808,2.8119,2.8149,2.8216,2.8223,2.8258,2.825,2.8303,2.8255,2.8255,2.8248,2.8245,2.8248,2.8311,2.8313,2.8314,2.8315,0,2.7962,2.796,2.7994,2.8029,2.8057,2.8084,2.8108,2.8129,2.8124,2.8153,2.8194,2.8218,2.8265,2.8304,2.8337,2.8349,2.8331,2.833,2.8342,2.8344,2.8342,2.8341,2.8187,2.8326,2.8325,2.8324,2.8324,2.8323,2.8052,2.8087,2.8108,2.8147,2.8164,2.8187,2.822,2.8227,2.8261,2.8299,2.8293,2.8339,2.8359,2.8403,2.8417,2.8452,2.8434,2.8452,2.8456,2.846,2.8464,2.8338,2.8459,2.8458,2.8458,2.8458,2.8458,0,2.8174,2.8186,2.8222,2.8256,2.8286,2.8267,2.8292,2.8318,2.8359,2.838,2.841,2.8457,2.8494,2.8504,2.8539,2.8565,2.8557,2.8574,2.8571,2.8574,2.848,2.8465,2.8579,2.8579,2.8579,2.8579,2.8579,2.8579,2.8241,2.8299,2.8299,2.8365,2.8376,2.8421,2.8437,2.8457,2.8474,2.8527,2.8557,2.8563,2.8579,2.8615,2.8648,2.865,2.8662,2.8682,2.8681,2.8593,2.8581,2.8569,2.8554,2.8686,2.8686,2.8771,2.8772,2.8772]},{"header":{"parameterUnit":"m.s-1","parameterCategory":1,"la1":30.2991,"la2":30.254,"lo1":-89.0895,"lo2":-89.0444,"dy":0.0017,"dx":0.0017,"nx":28,"ny":28,"refTime":"2024-05-23T21:00:00:Z","depth":0,"parameterNumber":3,"parameterNumberName":"V-component_of_WINDS"},"data":[0,0,0,0,0,0,0,0,0,0,0,0,0,0,0,0,0,0,0,0,0,0,0,0,0,0,0,0,0,0,0,0,0,0,0,0,0,0,0,0,0,0,0,0,0,0,0,0,0,0,0,0,0,0,0,0,0,0,3.7346,3.7346,0,3.7389,3.739,3.739,3.7349,3.7348,3.7346,3.7344,3.7386,3.7389,3.7391,0,0,0,0,0,0,0,0,0,0,0,0,0,3.7224,3.7226,3.7346,3.7346,3.7347,3.7389,3.739,3.739,3.7349,3.7347,3.7345,3.7344,3.7385,3.7388,3.7392,0,0,0,0,0,0,0,0,0,0,0,0,0,3.7273,3.7227,3.7346,3.7332,3.7331,3.7389,3.739,3.739,3.735,3.7347,3.7345,3.7343,3.7384,3.7388,3.7392,3.7465,0,0,3.7404,3.7406,0,0,0,0,0,0,0,0,3.727,3.7277,3.7333,3.7333,3.7332,3.7361,3.7362,3.7415,3.735,3.7343,3.7344,3.7341,3.738,3.7384,3.7397,3.7467,3.7469,3.7404,3.7407,3.7409,3.741,0,0,0,0,0,0,0,3.7267,3.7275,3.7363,3.7334,3.7333,3.7322,3.7326,3.7372,3.7374,3.7343,3.734,3.7346,3.7379,3.7394,3.7398,3.747,3.7404,3.7408,3.741,3.7412,3.76,3.7602,0,0,0,0,0,0,3.7265,3.7273,3.7361,3.7364,3.7295,3.7326,3.7331,3.7354,3.7374,3.7374,3.7348,3.7344,3.7388,3.7393,3.7399,3.7485,3.7409,3.7412,3.7415,3.7597,3.76,3.7603,0,0,0,0,0,0,3.7263,3.7274,3.736,3.7318,3.7328,3.7331,3.7357,3.7356,3.7371,3.7377,3.7377,3.7363,3.7386,3.7394,3.7449,3.7486,3.7414,3.7418,3.7594,3.7598,3.7602,3.7658,0,0,0,0,0,0,3.726,3.7273,3.7302,3.7319,3.733,3.741,3.736,3.7359,3.7378,3.7373,3.7391,3.7392,3.7385,3.7443,3.7453,3.749,3.7421,3.7591,3.7596,3.7601,3.7653,3.7664,3.7673,0,0,0,0,0,3.7256,3.7316,3.7304,3.7315,3.7367,3.7412,3.7419,3.741,3.7382,3.741,3.7414,3.7391,3.7481,3.7449,3.746,3.7499,3.7588,3.7595,3.76,3.7649,3.7662,3.7673,0,0,0,0,0,0,3.7303,3.7318,3.7305,3.7373,3.7392,3.7405,3.7441,3.7424,3.7451,3.7445,3.7433,3.7437,3.7495,3.7502,3.7467,3.757,3.753,3.7538,3.7563,3.7575,3.7585,3.7582,3.7424,0,0,0,0,0,3.7322,3.7359,3.7369,3.7428,3.7438,3.7438,3.7458,3.7449,3.7468,3.7476,3.7484,3.7502,3.7533,3.7555,3.7585,3.7654,3.7656,3.7686,3.7696,3.7704,3.7711,3.7746,3.7759,3.7623,3.7623,3.7623,0,0,3.7361,3.7373,3.7397,3.7438,3.7452,3.7489,3.7445,3.7487,3.7514,3.7482,3.7534,3.7541,3.756,3.7622,3.765,3.763,3.7749,3.7711,3.7718,3.772,3.7754,3.7767,3.7778,3.7627,3.7626,3.7625,0,0,3.745,3.7464,3.7514,3.7528,3.7549,3.7548,3.756,3.7576,3.758,3.7632,3.7608,3.764,3.7695,3.771,3.7724,3.7817,3.7797,3.7827,3.7878,3.7913,3.7924,3.7933,3.7965,3.7977,3.7834,3.7834,3.7834,0,3.7495,3.7551,3.7541,3.7584,3.7602,3.7575,3.7625,3.7639,3.7669,3.7681,3.7658,3.7727,3.7738,3.7802,3.7825,3.7838,3.785,3.7825,3.7923,3.7932,3.7941,3.7971,3.7984,3.7838,3.7837,3.7837,3.7837,0,3.7605,3.7644,3.7681,3.7711,3.7733,3.7779,3.7775,3.7798,3.7788,3.7789,3.7841,3.7854,3.7885,3.79,3.789,3.7962,3.7949,3.7925,3.7884,3.7958,3.7986,3.7997,3.7843,3.7841,3.784,3.7839,0,0,3.7726,3.7749,3.7763,3.7775,3.7796,3.7825,3.7869,3.79,3.792,3.7941,3.7976,3.8023,3.8001,3.8017,3.8008,3.8039,3.811,3.8011,3.8011,3.8028,3.8189,3.8207,3.822,3.8097,3.8099,3.8101,3.8187,0,3.7816,3.7893,3.7885,3.7958,3.7993,3.7967,3.8004,3.8021,3.8022,3.8051,3.8052,3.8086,3.8054,3.8064,3.8093,3.8095,3.8142,3.8089,3.8129,3.813,3.8124,3.8235,3.8254,3.8335,3.8198,3.82,3.8201,0,3.793,3.7955,3.8032,3.8046,3.806,3.8095,3.8121,3.815,3.8167,3.8166,3.8184,3.8169,3.8211,3.817,3.8227,3.8191,3.8207,3.821,3.8213,3.8216,3.817,3.8241,3.8361,3.8373,3.8219,3.8218,3.8216,0,3.801,3.8063,3.8115,3.8127,3.8145,3.8169,3.8177,3.8192,3.821,3.8233,3.8245,3.8272,3.8287,3.8308,3.8301,3.8271,3.8359,3.8317,3.8358,3.8359,3.8378,3.8377,3.8502,3.8389,3.8389,3.8389,3.8388,0,3.811,3.8158,3.8151,3.8183,3.8235,3.8224,3.8276,3.8281,3.8293,3.8325,3.8304,3.8334,3.8322,3.8351,3.8345,3.8393,3.84,3.8399,3.8397,3.8401,3.8401,3.8411,3.8405,3.8392,3.8391,3.839,3.839,0,3.8208,3.8206,3.8261,3.8273,3.8277,3.8315,3.8324,3.8354,3.8353,3.8393,3.8402,3.8401,3.8434,3.8428,3.8464,3.846,3.8519,3.8511,3.8514,3.8512,3.8552,3.8548,3.8688,3.8705,3.8582,3.8583,3.8584,0,3.8272,3.8308,3.8324,3.8344,3.8354,3.8386,3.8405,3.8395,3.8415,3.8436,3.8462,3.8493,3.8517,3.857,3.8572,3.8599,3.859,3.8637,3.8594,3.8596,3.859,3.8587,3.859,3.8646,3.8647,3.8648,3.8649,0,3.8386,3.8382,3.8411,3.8438,3.8461,3.8482,3.8501,3.8518,3.8509,3.8532,3.8566,3.8584,3.8621,3.8651,3.8676,3.8683,3.8664,3.8663,3.8673,3.8677,3.8678,3.8677,3.8536,3.8659,3.8658,3.8658,3.8657,3.8657,3.8468,3.8498,3.8514,3.8545,3.8558,3.8576,3.8604,3.8607,3.8634,3.8664,3.8655,3.8693,3.8707,3.8738,3.8748,3.8776,3.8759,3.8774,3.8778,3.8782,3.8787,3.8674,3.8781,3.878,3.878,3.878,3.878,0,3.858,3.8588,3.8617,3.8644,3.8668,3.8649,3.8668,3.869,3.8723,3.8738,3.8762,3.8799,3.8828,3.8832,3.8859,3.888,3.8872,3.8887,3.8885,3.8887,3.8801,3.8789,3.8893,3.8893,3.8893,3.8893,3.8893,3.8893,3.864,3.869,3.8688,3.8743,3.8751,3.8788,3.88,3.8816,3.8828,3.887,3.8894,3.8897,3.8907,3.8934,3.8959,3.8959,3.8969,3.8988,3.8985,3.8905,3.8893,3.8883,3.8871,3.8991,3.8991,3.9068,3.9069,3.9069]}]]